Location: Newark
(48.8519°N, 2.3472°E)
Time: 00:52:18
(UTC+00:00)

XW-2C - Visible Passes

Search period start: 23 October 2019 00:00
Search period end: 02 November 2019 00:00
Orbit: 507 x 529 km, 97.5° (Epoch: 22 October)

Date Brightness Start Highest point End Pass type
(mag) Time Alt. Az. Time Alt. Az. Time Alt. Az.
23 Oct ? 05:27:50 10° NNE 05:31:20 37° E 05:34:48 10° SSE visible
23 Oct ? 17:46:44 10° SSW 17:49:46 23° W 17:52:47 10° NW visible
24 Oct ? 05:14:07 10° NE 05:17:19 26° E 05:20:29 10° SSE visible
24 Oct ? 17:32:20 10° SSW 17:35:44 31° W 17:39:07 10° NNW visible
25 Oct ? 05:00:32 10° NE 05:03:15 19° E 05:05:57 10° SE visible
25 Oct ? 17:18:06 10° S 17:21:43 45° W 17:25:20 10° NNW visible
26 Oct ? 04:47:13 10° ENE 04:49:10 14° E 04:51:06 10° ESE visible
28 Oct ? 05:52:00 10° NNE 05:55:44 72° ESE 05:59:27 10° S visible
28 Oct ? 18:12:37 10° WSW 18:14:19 13° W 18:16:02 10° WNW visible
29 Oct ? 05:38:06 10° NNE 05:41:45 49° E 05:45:23 10° S visible
29 Oct ? 17:57:39 10° SW 18:00:14 18° W 18:02:49 10° NW visible
30 Oct ? 05:24:18 10° NNE 05:27:44 34° E 05:31:10 10° SSE visible
30 Oct ? 17:43:04 10° SSW 17:46:10 24° W 17:49:17 10° NW visible
31 Oct ? 05:10:36 10° NE 05:13:42 24° E 05:16:47 10° SSE visible
31 Oct ? 17:28:41 10° SSW 17:32:07 34° W 17:35:34 10° NNW visible
01 Nov ? 04:57:03 10° NE 04:59:38 17° E 05:02:12 10° SE visible
01 Nov ? 17:14:29 10° S 17:18:07 49° W 17:21:46 10° NNW visible
